Weather in Changi

Uzbekistan     41°20′42″N   69°47′38″E
temp.,
°C
wind,
m/s
gust,
m/s
humid.,
%
clouds,
%
prec.,
mm/h
press.,
hPa
HPBL,
m
19 may, wed
wed1923:00+18ese4331100 0.0 101027
02:00+18e44270 0.0 100830
05:00+18e43290 0.0 100825
08:00+24ssw242738 0.0 1008984
11:00+26sw572189 0.0 10083355
14:00+27wsw58195 0.0 10083703
17:00+26wsw55230 0.0 10071762
20:00+20ese43240 0.0 100823
20 may, thu
thu2023:00+19e44250 0.0 100831
02:00+18ese432116 0.0 100820
05:00+18e43205 0.0 100921
08:00+23w112539 0.0 1009424
11:00+25nw44223 0.0 10102509
14:00+26nw45205 0.0 10093591
17:00+24n69300 0.0 10102519
20:00+19e43320 0.0 101127
21 may, fri
fri2123:00+18e432910 0.0 101228
02:00+18ese33275 0.0 101118
05:00+17se223218 0.0 101213
08:00+22sw32310 0.0 1013700
11:00+23wsw43320 0.0 10131408
14:00+24wsw33290 0.0 10122154
17:00+24wnw22280 0.0 10112361
20:00+19se334013 0.0 101319
22 may, sat
sat2223:00+18ese434038 0.0 101328
02:00+17e334244 0.0 101223
05:00+16e33422 0.0 101219
08:00+21w21390 0.1 1012501
11:00+23w423821 0.1 10121439
14:00+23n444172 0.4 10111276
17:00+22ne233610 0.8 1010386
20:00+18ese334473 0.0 101017
23 may, sun
sun2323:00+18ese324365 0.0 100916
02:00+17e3344100 0.0 100820
05:00+17e3243100 0.0 100815
08:00+20w2144100 0.0 1009306
11:00+22w324397 0.0 1009870
14:00+21ene5551100 1.4 1010921
17:00+22ene4640100 1.7 1009613
20:00+18ese434972 0.0 101028